Regional Weather Roundup
Issued by NWS

Home | Current Version | Previous Version | Text Only | Print | Product List | Glossary On
Versions: 1 2 3 4 5 6 7 8 9 10 11 12 13 14 15 16 17 18 19 20 21 22 23 24 25 26 27 28 29 30 31 32 33 34 35 36 37 38 39 40 41 42 43 44 45 46 47 48 49 50
000
ASUS44 KLIX 021112
RWRLA
LOUISIANA WEATHER ROUNDUP
NATIONAL WEATHER SERVICE NEW ORLEANS LA
600 AM CDT TUE JUN 02 2015

NOTE: "FAIR" INDICATES FEW OR NO CLOUDS BELOW 12,000 FEET WITH NO
      SIGNIFICANT WEATHER AND/OR OBSTRUCTIONS TO VISIBILITY.
      SKY/WX - SKY CONDITION AND SIGNIFICANT WEATHER.
      TMP - AIR TEMPERATURE.    DP   - DEWPOINT TEMPERATURE.
      RH  - RELATIVE HUMIDITY.  PRES - PRESSURE.
      HX  - HEAT INDEX.         WCI  - WIND CHILL INDEX.

*  THESE STATIONS ARE NOT NWS OR FAA STATIONS AND ARE NOT UNDER
   NWS QUALITY CONTROL.

LAZ040-048-061>063-065-066-069-021200-
SOUTHEAST LOUISIANA

CITY           SKY/WX    TMP DP  RH WIND       PRES   REMARKS
N.O. AUDUBON     N/A     73  73 100 MISG        N/A
N.O. INTL ARPT MOCLDY    72  68  87 CALM      29.98S
N.O. LAKEFRONT PTCLDY    78  69  73 CALM      29.98S
SLIDELL        PTCLDY    71  71 100 NW3       29.97F
BATON ROUGE    PTCLDY    67  66  97 CALM      30.00S
BOOTHVILLE     CLOUDY    76  70  82 CALM      29.98S
BELLE CHASSE   MOCLDY    69  69 100 W3        29.97F FOG
BOGALUSA*        N/A     69  66  89 N3        30.00F
GALLIANO*      SUNNY     73  69  86 W3        29.98F
NEW ROADS*     FAIR     N/A N/A N/A CALM      30.02R
GONZALES*      FAIR      68  68 100 CALM      29.98S
HAMMOND*       CLEAR     68  66  94 N3        30.01R
HOUMA*         CLEAR     70  70 100 CALM      29.99S
PORT FOURCHON* PTSUNNY   75  70  83 CALM      29.99R

$$

LAZ041-044-053-054-021200-
SOUTHWEST LOUISIANA

CITY           SKY/WX    TMP DP  RH WIND       PRES   REMARKS
LAKE CHARLES   CLEAR     67  63  87 CALM      30.00S
LAFAYETTE      CLEAR     69  66  90 CALM      30.00S
PATTERSON      CLEAR     70  66  88 CALM      30.00S
SALT POINT       N/A     72  69  90 CALM      29.98S
NEW IBERIA     CLEAR     70  67  90 CALM      30.01R
CHENAULT AIRPK CLEAR     66  64  94 CALM      30.01S

$$

LAZ027-028-021200-
CENTRAL LOUISIANA

CITY           SKY/WX    TMP DP  RH WIND       PRES   REMARKS
FORT POLK      CLEAR     66  65  95 NE5       30.01S
ALEXANDRIA INT CLEAR     66  65  96 CALM      30.01S
ALEXANDRIA     CLEAR     63  62  97 CALM      30.03S

$$

LAZ001-002-021200-
NORTHWEST LOUISIANA

CITY           SKY/WX    TMP DP  RH WIND       PRES   REMARKS
SHREVEPORT     PTCLDY    64  63  96 CALM      30.05R
BARKSDALE AFB  CLEAR     64  64 100 CALM      30.05R
DTN SHREVEPORT CLEAR     65  63  93 CALM      30.05S

$$

LAZ014-016-021200-
NORTHEAST LOUISIANA

CITY           SKY/WX    TMP DP  RH WIND       PRES   REMARKS
MONROE         CLEAR     63  63 100 NE5       30.06R
TALLULAH       CLEAR     65  62  90 CALM      30.04R

$$




USA.gov is the U.S. government's official web portal to all federal, state and local government web resources and services.